SAA281 YPPH-FAOR

Flight info

Callsign SAA281
Flight time N/A
Altitude 34000
Route OPEGA DCT 33S108E 35S101E 36S095E 37S088E/N0468F360 38S082E DCT SUNKI UT451 RAXES/N0463F380 DCT 35S051E 33S045E 31S040E DCT EGSOX Q21 ALENI UZ9 UNPOM UNPOM1A
Aircraft A343/H-SDE2E3FGHIJ4J5M1RWXY/LB1D1

Departure

Time 2026-05-06 21:06
Airport Perth International Airport (YPPH)

Arrival

Time N/A
Airport O.R. Tambo International Airport (FAOR)
Time Latitude Longitude Altitude Speed Heading
2026-05-06 20:15 -31.93989 115.97444 72 ft 0 kts 172°
2026-05-06 20:52 -31.93968 115.97441 84 ft 4 kts 172°
2026-05-06 20:52 -31.93941 115.97437 61 ft 4 kts 172°
2026-05-06 20:53 -31.93930 115.97435 66 ft 1 kts 173°
2026-05-06 20:57 -31.93942 115.97430 65 ft 3 kts 204°
2026-05-06 20:57 -31.93949 115.97404 65 ft 4 kts 268°
2026-05-06 20:57 -31.93940 115.97361 63 ft 7 kts 284°
2026-05-06 20:58 -31.93936 115.97298 71 ft 9 kts 266°
2026-05-06 20:58 -31.93958 115.97220 62 ft 11 kts 255°
2026-05-06 20:58 -31.93953 115.97132 61 ft 11 kts 281°
2026-05-06 20:58 -31.93934 115.97044 70 ft 11 kts 284°
2026-05-06 20:59 -31.93916 115.96961 66 ft 10 kts 282°
2026-05-06 20:59 -31.93938 115.96892 61 ft 9 kts 222°
2026-05-06 20:59 -31.93993 115.96867 64 ft 9 kts 195°
2026-05-06 20:59 -31.94056 115.96849 66 ft 10 kts 194°
2026-05-06 21:00 -31.94128 115.96827 61 ft 12 kts 194°
2026-05-06 21:00 -31.94212 115.96803 67 ft 13 kts 194°
2026-05-06 21:00 -31.94309 115.96774 66 ft 15 kts 194°
2026-05-06 21:00 -31.94416 115.96743 65 ft 17 kts 194°
2026-05-06 21:01 -31.94531 115.96710 63 ft 17 kts 193°
2026-05-06 21:01 -31.94649 115.96676 67 ft 18 kts 194°
2026-05-06 21:01 -31.94773 115.96640 64 ft 19 kts 194°
2026-05-06 21:01 -31.94900 115.96604 63 ft 19 kts 194°
2026-05-06 21:02 -31.95031 115.96565 66 ft 20 kts 194°
2026-05-06 21:02 -31.95164 115.96526 63 ft 20 kts 193°
2026-05-06 21:02 -31.95298 115.96487 64 ft 19 kts 194°
2026-05-06 21:02 -31.95426 115.96450 61 ft 19 kts 194°
2026-05-06 21:03 -31.95550 115.96413 66 ft 18 kts 194°
2026-05-06 21:03 -31.95667 115.96379 64 ft 17 kts 194°
2026-05-06 21:03 -31.95777 115.96347 63 ft 16 kts 194°
2026-05-06 21:03 -31.95881 115.96314 66 ft 15 kts 203°
2026-05-06 21:04 -31.95917 115.96222 67 ft 12 kts 277°
2026-05-06 21:04 -31.95897 115.96127 64 ft 12 kts 284°
2026-05-06 21:04 -31.95878 115.96038 70 ft 10 kts 284°
2026-05-06 21:04 -31.95857 115.95985 65 ft 6 kts 319°
2026-05-06 21:05 -31.95816 115.95987 64 ft 6 kts 13°
2026-05-06 21:05 -31.95808 115.95989 62 ft 0 kts 13°
2026-05-06 21:05 -31.95766 115.96001 62 ft 24 kts 13°
2026-05-06 21:05 -31.95401 115.96107 66 ft 83 kts 14°
2026-05-06 21:06 -31.94672 115.96322 65 ft 132 kts 14°
2026-05-06 21:06 -31.93655 115.96609 141 ft 166 kts 16°
2026-05-06 21:06 -31.92516 115.96922 618 ft 171 kts 17°
2026-05-06 21:06 -31.91318 115.97286 1061 ft 184 kts 19°
2026-05-06 21:07 -31.90048 115.97699 1452 ft 196 kts 19°
2026-05-06 21:07 -31.88636 115.97969 1706 ft 219 kts
2026-05-06 21:07 -31.87109 115.97413 2005 ft 246 kts 328°
2026-05-06 21:07 -31.86129 115.95766 2770 ft 252 kts 291°
2026-05-06 21:08 -31.85787 115.93757 3554 ft 248 kts 281°
2026-05-06 21:08 -31.85563 115.91767 4272 ft 243 kts 280°
2026-05-06 21:08 -31.85340 115.89794 4832 ft 247 kts 280°
2026-05-06 21:08 -31.85180 115.88443 5026 ft 257 kts 280°
2026-05-06 21:09 -31.84917 115.86291 5311 ft 273 kts 280°
2026-05-06 21:09 -31.84545 115.83290 5890 ft 285 kts 279°
2026-05-06 21:09 -31.84348 115.81719 6231 ft 289 kts 278°
2026-05-06 21:09 -31.83954 115.78585 7009 ft 294 kts 277°
2026-05-06 21:10 -31.83751 115.76972 7385 ft 296 kts 277°
2026-05-06 21:10 -31.83451 115.74604 7970 ft 297 kts 277°
2026-05-06 21:10 -31.83143 115.72184 8530 ft 301 kts 277°
2026-05-06 21:10 -31.82832 115.69741 9092 ft 303 kts 277°
2026-05-06 21:11 -31.82600 115.67280 9687 ft 303 kts 269°
2026-05-06 21:11 -31.82965 115.64864 10250 ft 303 kts 249°
2026-05-06 21:11 -31.83727 115.62508 10526 ft 313 kts 245°
2026-05-06 21:11 -31.84573 115.60100 10787 ft 325 kts 246°
2026-05-06 21:12 -31.85448 115.57594 11001 ft 337 kts 246°
2026-05-06 21:12 -31.86324 115.54979 11204 ft 350 kts 250°
2026-05-06 21:12 -31.86743 115.52106 11367 ft 367 kts 271°
2026-05-06 21:12 -31.86297 115.49105 11663 ft 376 kts 284°
2026-05-06 21:13 -31.85589 115.46125 12052 ft 381 kts 285°
2026-05-06 21:13 -31.84862 115.43114 12496 ft 384 kts 285°
2026-05-06 21:13 -31.84142 115.40094 12766 ft 393 kts 284°
2026-05-06 21:13 -31.83406 115.36976 13207 ft 396 kts 284°
2026-05-06 21:14 -31.82669 115.33839 13659 ft 400 kts 284°
2026-05-06 21:14 -31.81931 115.30692 14254 ft 398 kts 284°
2026-05-06 21:14 -31.81192 115.27536 14767 ft 399 kts 284°
2026-05-06 21:14 -31.80516 115.24352 15114 ft 404 kts 280°
2026-05-06 21:15 -31.79984 115.21074 15394 ft 410 kts 279°
2026-05-06 21:15 -31.79466 115.17784 15976 ft 409 kts 279°
2026-05-06 21:15 -31.78938 115.14519 16270 ft 416 kts 278°
2026-05-06 21:15 -31.78384 115.11164 16706 ft 418 kts 279°
2026-05-06 21:16 -31.77821 115.07812 17182 ft 420 kts 279°
2026-05-06 21:16 -31.77249 115.04424 17495 ft 426 kts 279°
2026-05-06 21:16 -31.76667 115.00996 17852 ft 430 kts 279°
2026-05-06 21:16 -31.76080 114.97554 18424 ft 428 kts 279°
2026-05-06 21:17 -31.75491 114.94115 18916 ft 429 kts 279°
2026-05-06 21:17 -31.74898 114.90656 19194 ft 434 kts 279°
2026-05-06 21:17 -31.74304 114.87176 19622 ft 434 kts 280°
2026-05-06 21:17 -31.73705 114.83703 20101 ft 434 kts 280°
2026-05-06 21:18 -31.73102 114.80212 20375 ft 439 kts 280°
2026-05-06 21:18 -31.72493 114.76691 20677 ft 442 kts 279°
2026-05-06 21:18 -31.71886 114.73178 21036 ft 444 kts 280°
2026-05-06 21:18 -31.71269 114.69628 21442 ft 445 kts 279°
2026-05-06 21:19 -31.70646 114.66038 21731 ft 449 kts 279°
2026-05-06 21:19 -31.70019 114.62431 22053 ft 452 kts 279°
2026-05-06 21:19 -31.69388 114.58806 22495 ft 451 kts 280°
2026-05-06 21:19 -31.68758 114.55201 22948 ft 451 kts 279°
2026-05-06 21:20 -31.68123 114.51569 23188 ft 455 kts 279°
2026-05-06 21:20 -31.67487 114.47933 23639 ft 454 kts 280°
2026-05-06 21:20 -31.66847 114.44291 24068 ft 454 kts 280°
2026-05-06 21:20 -31.66212 114.40674 24208 ft 460 kts 279°
2026-05-06 21:21 -31.65562 114.36980 24389 ft 464 kts 280°
2026-05-06 21:21 -31.64909 114.33280 24755 ft 463 kts 279°
2026-05-06 21:21 -31.64252 114.29558 24885 ft 469 kts 279°
2026-05-06 21:21 -31.63588 114.25802 25165 ft 469 kts 279°
2026-05-06 21:22 -31.62923 114.22058 25524 ft 468 kts 280°
2026-05-06 21:22 -31.62258 114.18318 25867 ft 468 kts 279°
2026-05-06 21:22 -31.61589 114.14552 26064 ft 471 kts 280°
2026-05-06 21:22 -31.60917 114.10786 26400 ft 471 kts 279°
2026-05-06 21:23 -31.60244 114.07018 26635 ft 472 kts 280°
2026-05-06 21:23 -31.59567 114.03238 26863 ft 474 kts 279°
2026-05-06 21:23 -31.58888 113.99441 27092 ft 476 kts 280°
2026-05-06 21:23 -31.58206 113.95647 27424 ft 475 kts 279°
2026-05-06 21:24 -31.57529 113.91887 27570 ft 479 kts 279°
2026-05-06 21:24 -31.56840 113.88056 27790 ft 480 kts 279°
2026-05-06 21:24 -31.56148 113.84221 28112 ft 479 kts 279°
2026-05-06 21:24 -31.55455 113.80392 28331 ft 481 kts 279°
2026-05-06 21:25 -31.54759 113.76548 28535 ft 482 kts 280°
2026-05-06 21:25 -31.54062 113.72708 28814 ft 482 kts 280°
2026-05-06 21:25 -31.53360 113.68851 28987 ft 484 kts 280°
2026-05-06 21:25 -31.52654 113.64976 29128 ft 487 kts 279°
2026-05-06 21:26 -31.51946 113.61095 29387 ft 487 kts 279°
2026-05-06 21:26 -31.51238 113.57223 29683 ft 486 kts 280°
2026-05-06 21:26 -31.50529 113.53357 29989 ft 485 kts 279°
2026-05-06 21:26 -31.49820 113.49493 30259 ft 484 kts 279°
2026-05-06 21:27 -31.49113 113.45642 30586 ft 482 kts 279°
2026-05-06 21:27 -31.48580 113.41779 30786 ft 479 kts 272°
2026-05-06 21:27 -31.48530 113.37944 31017 ft 475 kts 263°
2026-05-06 21:27 -31.49009 113.34136 31278 ft 469 kts 253°
2026-05-06 21:28 -31.49932 113.30482 31541 ft 466 kts 249°
2026-05-06 21:28 -31.50985 113.26898 31716 ft 465 kts 248°
2026-05-06 21:28 -31.52088 113.23343 31959 ft 463 kts 247°
2026-05-06 21:28 -31.53207 113.19803 32152 ft 463 kts 247°
2026-05-06 21:29 -31.54326 113.16255 32363 ft 462 kts 248°
2026-05-06 21:29 -31.55433 113.12718 32570 ft 461 kts 248°
2026-05-06 21:29 -31.56515 113.09231 32746 ft 460 kts 248°
2026-05-06 21:29 -31.57604 113.05695 32960 ft 459 kts 248°
2026-05-06 21:30 -31.58683 113.02173 33114 ft 459 kts 248°
2026-05-06 21:30 -31.59759 112.98652 33339 ft 458 kts 248°
2026-05-06 21:30 -31.60831 112.95136 33480 ft 458 kts 248°
2026-05-06 21:30 -31.61901 112.91622 33676 ft 456 kts 248°
2026-05-06 21:31 -31.62968 112.88114 33826 ft 456 kts 248°
2026-05-06 21:31 -31.64039 112.84595 34009 ft 456 kts 248°
2026-05-06 21:31 -31.65101 112.81099 34171 ft 455 kts 248°
2026-05-06 21:31 -31.66161 112.77605 34309 ft 455 kts 248°
2026-05-06 21:32 -31.67220 112.74113 34386 ft 452 kts 249°
2026-05-06 21:32 -31.70308 112.63897 34392 ft 441 kts 249°
2026-05-06 21:33 -31.72361 112.57096 34393 ft 442 kts 249°
2026-05-06 21:33 -31.74411 112.50291 34393 ft 442 kts 249°
2026-05-06 21:34 -31.76454 112.43490 34390 ft 442 kts 249°
2026-05-06 21:34 -31.78496 112.36675 34391 ft 442 kts 249°
2026-05-06 21:35 -31.80523 112.29896 34389 ft 442 kts 249°
2026-05-06 21:35 -31.82561 112.23067 34391 ft 442 kts 249°
2026-05-06 21:36 -31.84592 112.16244 34393 ft 442 kts 249°
2026-05-06 21:36 -31.86619 112.09419 34391 ft 442 kts 249°
2026-05-06 21:37 -31.88645 112.02584 34389 ft 442 kts 249°
2026-05-06 21:37 -31.90667 111.95744 34390 ft 442 kts 249°
2026-05-06 21:38 -31.92667 111.88965 34387 ft 442 kts 249°
2026-05-06 21:38 -31.94687 111.82105 34386 ft 442 kts 249°
2026-05-06 21:39 -31.96699 111.75254 34386 ft 442 kts 249°
2026-05-06 21:39 -31.98707 111.68403 34392 ft 442 kts 249°
2026-05-06 21:40 -32.00708 111.61557 34393 ft 442 kts 249°
2026-05-06 21:40 -32.02705 111.54710 34392 ft 442 kts 249°
2026-05-06 21:41 -32.04689 111.47895 34389 ft 442 kts 249°
2026-05-06 21:41 -32.06681 111.41035 34390 ft 442 kts 249°
2026-05-06 21:42 -32.08667 111.34180 34390 ft 442 kts 250°
2026-05-06 21:42 -32.10656 111.27299 34389 ft 442 kts 250°
2026-05-06 21:43 -32.12626 111.20468 34390 ft 442 kts 250°
2026-05-06 21:43 -32.14608 111.13580 34381 ft 443 kts 250°
2026-05-06 21:44 -32.16584 111.06696 34385 ft 443 kts 250°
2026-05-06 21:44 -32.18561 110.99796 34389 ft 443 kts 250°
2026-05-06 21:45 -32.20533 110.92892 34384 ft 443 kts 250°
2026-05-06 21:45 -32.22502 110.85986 34391 ft 443 kts 250°
2026-05-06 21:46 -32.24454 110.79123 34389 ft 443 kts 250°
2026-05-06 21:46 -32.26412 110.72222 34394 ft 443 kts 250°
2026-05-06 21:47 -32.28370 110.65306 34394 ft 443 kts 250°
2026-05-06 21:47 -32.30320 110.58398 34392 ft 443 kts 250°
2026-05-06 21:48 -32.32267 110.51487 34391 ft 443 kts 250°
2026-05-06 21:48 -32.34217 110.44550 34391 ft 443 kts 250°
2026-05-06 21:49 -32.36157 110.37631 34393 ft 443 kts 250°
2026-05-06 21:49 -32.38084 110.30743 34393 ft 443 kts 250°
2026-05-06 21:50 -32.40017 110.23818 34395 ft 443 kts 250°
2026-05-06 21:50 -32.41945 110.16892 34395 ft 443 kts 250°
2026-05-06 21:51 -32.43873 110.09952 34391 ft 443 kts 250°
2026-05-06 21:51 -32.45795 110.03013 34395 ft 443 kts 251°
2026-05-06 21:52 -32.47713 109.96074 34395 ft 443 kts 251°
2026-05-06 21:52 -32.49614 109.89178 34398 ft 443 kts 251°
2026-05-06 21:53 -32.51522 109.82244 34398 ft 443 kts 251°
2026-05-06 21:53 -32.53432 109.75284 34397 ft 443 kts 251°
2026-05-06 21:54 -32.55329 109.68354 34400 ft 442 kts 251°
2026-05-06 21:54 -32.57221 109.61426 34400 ft 442 kts 251°
2026-05-06 21:55 -32.59112 109.54483 34398 ft 442 kts 251°
2026-05-06 21:55 -32.60997 109.47547 34395 ft 442 kts 251°
2026-05-06 21:56 -32.62562 109.41777 34394 ft 442 kts 251°
2026-05-06 21:56 -32.64743 109.33712 34394 ft 441 kts 251°
2026-05-06 21:57 -32.66312 109.27898 34395 ft 441 kts 251°
2026-05-06 21:57 -32.68170 109.20997 34399 ft 441 kts 251°
2026-05-06 21:58 -32.70033 109.14061 34395 ft 441 kts 251°
2026-05-06 21:58 -32.71894 109.07111 34394 ft 441 kts 251°
2026-05-06 21:59 -32.73748 109.00175 34395 ft 440 kts 252°
2026-05-06 21:59 -32.75600 108.93226 34397 ft 440 kts 251°
2026-05-06 22:00 -32.77446 108.86284 34403 ft 441 kts 251°
2026-05-06 22:00 -32.79288 108.79339 34401 ft 441 kts 251°
2026-05-06 22:01 -32.81127 108.72390 34397 ft 440 kts 252°
2026-05-06 22:01 -32.82959 108.65449 34396 ft 439 kts 252°
2026-05-06 22:02 -32.84787 108.58503 34395 ft 439 kts 252°
2026-05-06 22:02 -32.86609 108.51566 34399 ft 440 kts 252°
2026-05-06 22:03 -32.88419 108.44656 34401 ft 440 kts 252°
2026-05-06 22:03 -32.90234 108.37710 34397 ft 440 kts 252°
2026-05-06 22:04 -32.92048 108.30750 34394 ft 439 kts 252°
2026-05-06 22:04 -32.93855 108.23797 34393 ft 440 kts 252°
2026-05-06 22:05 -32.95662 108.16828 34397 ft 440 kts 252°
2026-05-06 22:05 -32.97468 108.09848 34400 ft 440 kts 252°
2026-05-06 22:06 -32.99254 108.02924 34399 ft 440 kts 252°
2026-05-06 22:06 -33.01122 107.95975 34400 ft 439 kts 250°
2026-05-06 22:07 -33.03340 107.89186 34398 ft 440 kts 248°
2026-05-06 22:07 -33.05607 107.82408 34399 ft 440 kts 248°
2026-05-06 22:08 -33.07801 107.75649 34403 ft 440 kts 249°
2026-05-06 22:08 -33.09976 107.68825 34399 ft 440 kts 249°
2026-05-06 22:09 -33.12138 107.62003 34398 ft 440 kts 249°
2026-05-06 22:09 -33.14298 107.55180 34397 ft 440 kts 249°
2026-05-06 22:10 -33.16459 107.48343 34393 ft 439 kts 249°
2026-05-06 22:10 -33.18614 107.41511 34394 ft 440 kts 249°
2026-05-06 22:11 -33.20769 107.34665 34398 ft 440 kts 250°
2026-05-06 22:11 -33.22915 107.27833 34400 ft 440 kts 250°
2026-05-06 22:12 -33.25057 107.20998 34398 ft 440 kts 250°
2026-05-06 22:12 -33.27185 107.14190 34401 ft 440 kts 250°
2026-05-06 22:13 -33.29321 107.07343 34394 ft 440 kts 250°
2026-05-06 22:13 -33.31456 107.00485 34395 ft 440 kts 250°
2026-05-06 22:14 -33.33591 106.93609 34397 ft 440 kts 250°
2026-05-06 22:14 -33.35719 106.86741 34395 ft 440 kts 250°
2026-05-06 22:15 -33.37842 106.79874 34398 ft 440 kts 250°
2026-05-06 22:15 -33.39964 106.72994 34398 ft 441 kts 250°
2026-05-06 22:16 -33.42080 106.66118 34395 ft 441 kts 250°
2026-05-06 22:16 -33.44198 106.59221 34394 ft 441 kts 250°
2026-05-06 22:17 -33.46298 106.52366 34394 ft 441 kts 250°
2026-05-06 22:17 -33.48409 106.45459 34395 ft 441 kts 250°
2026-05-06 22:18 -33.50513 106.38559 34396 ft 441 kts 251°
2026-05-06 22:18 -33.52612 106.31660 34393 ft 441 kts 251°
2026-05-06 22:19 -33.54711 106.24744 34391 ft 441 kts 251°
2026-05-06 22:19 -33.56804 106.17833 34394 ft 441 kts 251°
2026-05-06 22:20 -33.58896 106.10907 34394 ft 441 kts 251°
2026-05-06 22:20 -33.60971 106.04026 34392 ft 441 kts 251°
2026-05-06 22:21 -33.63055 105.97096 34393 ft 441 kts 251°
2026-05-06 22:21 -33.65136 105.90160 34393 ft 441 kts 251°
2026-05-06 22:22 -33.67209 105.83232 34392 ft 441 kts 251°
2026-05-06 22:22 -33.69279 105.76301 34393 ft 441 kts 251°
2026-05-06 22:23 -33.71334 105.69402 34392 ft 441 kts 251°
2026-05-06 22:23 -33.73410 105.62418 34394 ft 441 kts 251°
2026-05-06 22:24 -33.75458 105.55513 34392 ft 441 kts 251°
2026-05-06 22:24 -33.77515 105.48558 34393 ft 441 kts 251°
2026-05-06 22:25 -33.79569 105.41599 34393 ft 441 kts 251°
2026-05-06 22:25 -33.81619 105.34636 34393 ft 441 kts 251°
2026-05-06 22:26 -33.83661 105.27683 34391 ft 441 kts 251°
2026-05-06 22:26 -33.85690 105.20757 34390 ft 441 kts 251°
2026-05-06 22:27 -33.87733 105.13768 34390 ft 441 kts 251°
2026-05-06 22:27 -33.89765 105.06799 34390 ft 441 kts 251°
2026-05-06 22:28 -33.91797 104.99814 34390 ft 441 kts 251°
2026-05-06 22:28 -33.93808 104.92885 34404 ft 441 kts 251°
2026-05-06 22:29 -33.95832 104.85895 34389 ft 441 kts 251°
2026-05-06 22:29 -33.97847 104.78919 34390 ft 441 kts 251°
2026-05-06 22:30 -33.99860 104.71929 34390 ft 441 kts 251°
2026-05-06 22:30 -34.01857 104.64983 34390 ft 441 kts 251°
2026-05-06 22:31 -34.03863 104.57986 34390 ft 441 kts 252°
2026-05-06 22:31 -34.05865 104.50985 34389 ft 441 kts 252°
2026-05-06 22:32 -34.07863 104.43981 34387 ft 441 kts 252°
2026-05-06 22:32 -34.09844 104.37020 34393 ft 441 kts 252°
2026-05-06 22:33 -34.11835 104.30009 34387 ft 441 kts 252°
2026-05-06 22:33 -34.13821 104.22996 34387 ft 441 kts 252°
2026-05-06 22:34 -34.15803 104.15979 34387 ft 441 kts 252°
2026-05-06 22:34 -34.17768 104.09007 34389 ft 441 kts 252°
2026-05-06 22:35 -34.19740 104.01990 34386 ft 442 kts 252°
2026-05-06 22:35 -34.21723 103.94917 34384 ft 442 kts 252°
2026-05-06 22:36 -34.23680 103.87922 34382 ft 442 kts 252°
2026-05-06 22:36 -34.25645 103.80879 34386 ft 441 kts 252°
2026-05-06 22:37 -34.27597 103.73865 34386 ft 440 kts 252°
2026-05-06 22:37 -34.29547 103.66841 34386 ft 440 kts 252°
2026-05-06 22:38 -34.31490 103.59822 34383 ft 440 kts 252°
2026-05-06 22:38 -34.33432 103.52788 34383 ft 440 kts 252°
2026-05-06 22:39 -34.35367 103.45764 34382 ft 440 kts 252°
2026-05-06 22:39 -34.37298 103.38737 34380 ft 440 kts 252°
2026-05-06 22:40 -34.39226 103.31704 34382 ft 440 kts 252°
2026-05-06 22:40 -34.41140 103.24703 34380 ft 440 kts 252°
2026-05-06 22:41 -34.44021 103.14133 34383 ft 440 kts 252°
2026-05-06 22:42 -34.45938 103.07076 34382 ft 440 kts 252°
2026-05-06 22:42 -34.47847 103.00029 34378 ft 440 kts 252°
2026-05-06 22:43 -34.49435 102.94154 34377 ft 440 kts 252°
2026-05-06 22:43 -34.51337 102.87103 34370 ft 440 kts 252°
2026-05-06 22:44 -34.53544 102.78896 34375 ft 440 kts 252°
2026-05-06 22:44 -34.55131 102.72978 34373 ft 440 kts 252°
2026-05-06 22:45 -34.57021 102.65914 34376 ft 440 kts 253°
2026-05-06 22:45 -34.58898 102.58881 34371 ft 440 kts 253°
2026-05-06 22:46 -34.60784 102.51797 34377 ft 441 kts 253°
2026-05-06 22:46 -34.62666 102.44708 34372 ft 442 kts 253°
2026-05-06 22:47 -34.64549 102.37598 34371 ft 442 kts 253°
2026-05-06 22:47 -34.66414 102.30537 34367 ft 441 kts 253°
2026-05-06 22:48 -34.68286 102.23429 34367 ft 441 kts 253°
2026-05-06 22:48 -34.70154 102.16316 34362 ft 441 kts 253°
2026-05-06 22:49 -34.72016 102.09212 34366 ft 441 kts 253°
2026-05-06 22:49 -34.73876 102.02092 34360 ft 441 kts 253°
2026-05-06 22:50 -34.75730 101.94979 34353 ft 440 kts 253°
2026-05-06 22:50 -34.77564 101.87921 34359 ft 440 kts 253°
2026-05-06 22:51 -34.79403 101.80830 34362 ft 440 kts 253°
2026-05-06 22:51 -34.81240 101.73722 34358 ft 440 kts 253°
2026-05-06 22:52 -34.83074 101.66609 34357 ft 440 kts 253°
2026-05-06 22:52 -34.84906 101.59482 34354 ft 439 kts 253°
2026-05-06 22:53 -34.86727 101.52381 34350 ft 439 kts 253°
2026-05-06 22:53 -34.88544 101.45277 34350 ft 440 kts 253°
2026-05-06 22:54 -34.90348 101.38202 34350 ft 440 kts 253°
2026-05-06 22:54 -34.92158 101.31088 34350 ft 439 kts 253°
2026-05-06 22:55 -34.93965 101.23962 34349 ft 439 kts 254°
2026-05-06 22:55 -34.95775 101.16807 34348 ft 444 kts 254°
2026-05-06 22:56 -34.97603 101.09558 34348 ft 451 kts 254°
2026-05-06 22:56 -34.99455 101.02197 34348 ft 455 kts 254°
2026-05-06 22:57 -35.01184 100.94849 34337 ft 452 kts 257°
2026-05-06 22:57 -35.02563 100.87366 34349 ft 451 kts 258°
2026-05-06 22:58 -35.03910 100.79884 34343 ft 452 kts 258°
2026-05-06 22:58 -35.05310 100.72409 34327 ft 452 kts 257°
2026-05-06 22:59 -35.06732 100.64953 34323 ft 451 kts 257°
2026-05-06 22:59 -35.08149 100.57525 34325 ft 451 kts 258°
2026-05-06 23:00 -35.09569 100.50039 34347 ft 453 kts 258°
2026-05-06 23:00 -35.10983 100.42550 34343 ft 452 kts 258°
2026-05-06 23:01 -35.12392 100.35059 34323 ft 451 kts 258°
2026-05-06 23:01 -35.13795 100.27572 34317 ft 452 kts 258°
2026-05-06 23:02 -35.15188 100.20116 34337 ft 453 kts 258°
2026-05-06 23:02 -35.16586 100.12601 34322 ft 454 kts 258°
2026-05-06 23:03 -35.17981 100.05074 34318 ft 454 kts 258°
2026-05-06 23:03 -35.19378 99.97513 34316 ft 454 kts 258°
2026-05-06 23:04 -35.20765 99.89977 34324 ft 455 kts 258°
2026-05-06 23:04 -35.22140 99.82477 34314 ft 455 kts 259°
2026-05-06 23:05 -35.23521 99.74914 34312 ft 457 kts 258°
2026-05-06 23:05 -35.24906 99.67303 34309 ft 458 kts 259°
2026-05-06 23:06 -35.26287 99.59686 34305 ft 459 kts 259°
2026-05-06 23:06 -35.27663 99.52069 34300 ft 458 kts 259°
2026-05-06 23:07 -35.29031 99.44465 34309 ft 457 kts 259°
2026-05-06 23:07 -35.30396 99.36849 34302 ft 459 kts 259°
2026-05-06 23:08 -35.31752 99.29253 34300 ft 460 kts 259°
2026-05-06 23:08 -35.33111 99.21612 34293 ft 459 kts 259°
2026-05-06 23:09 -35.34466 99.13967 34296 ft 459 kts 259°
2026-05-06 23:09 -35.35817 99.06310 34298 ft 459 kts 260°
2026-05-06 23:10 -35.37164 98.98650 34290 ft 460 kts 260°
2026-05-06 23:10 -35.38497 98.91033 34285 ft 459 kts 259°
2026-05-06 23:11 -35.39842 98.83325 34287 ft 459 kts 260°
2026-05-06 23:11 -35.41165 98.75712 34283 ft 460 kts 260°